Погода в Элисте

Погода в Элисте : погода сейчас, прогноз погоды и архив. Всё, что Вы хотите узнать о погоде в Элисте!

Поиск расширенной информации на нашем сайте:

Полезная информация: Батарейка philips LR14 Батарейки LR14 BL, LR20 BL.

Другие новости

Новости СМИ2

Главная страница сайта

Новости сайта

02.10.2013

Напоминаем, что на нашем новом сайте вы можете получить высокодетализированные прогнозы погоды по пунктам России, СНГ и мира (включающие важные для авиации метеовеличины, такие как направление и скорость ветра, видимость, явления погоды, количество и форма облачности, нижняя и верхняя граница облачности), а также ознакомиться с разнообразными материалами по авиационной метеорологии и подборкой полезных ссылок на эту тему.

Сайт Метеоцентр.Азия посвящён разработке технологий оптимизации авиаметеорологического обслуживания, включая проектирование и перспективное создание нескольких автоматизированных авиаметеорологических систем:
- система выпуска высокодетальных прогностических карт явлений погоды для нижнего воздушного пространства по России и ближнему зарубежью;
- система верификации прогнозов TAF (выпускаемых синоптиками официальных АМСГ РФ и ближнего зарубежья) и AUTOTAF (выпускаемых сайтом Метеоцентр.Азия) - выявление ошибок, онлайн-сопоставление с фактической погодой METAR, автоматическое внесение коррективов в прогнозы при резком отклонении фактической погоды от прогноза, подсчёт оправдываемости прогнозов по элементам и в целом;
- система обработки, анализа и отображения авиаметеорологической информации для применения провайдерами метеорологической информации.

Рекомендуем: Наши контакты агентство недвижимости гарантия.

Погода в Элисте - сегодня

Время (UTC), дата Ветер
(°,м/с) 
Видим.   Явления Облачность Т
(°С)
Тd
(°С)
f(%) Тe
(°С)
Pmin
(гПа)
dP
(гПа)
Po
(мм)
O2
(г/м3)
Тmin Tmax R s Состояние
почвы
03 20.04.17 270 (З) 5{11}  10 км    10/10 300 м 
[St]
+5.4 +2.3 80 +3  1019.5  747  295  +4.3        сухая 
06 20.04.17 290 (З) 20000 м    10/10 600 м 
[Sc]
+6.3 +2.1 74 +4  1020.3  0.9  747  294           
09 20.04.17 310 (СЗ) 20000 м    10/10 600 м 
[Sc]
+5.9 +0.3 67 +4  1021  0.6  748  295           
12 20.04.17 330 (СЗ) 4{11}  20000 м    6/4 1000 м верхняя 
[Cu med, cong|Ci fib]
+8.9 +0.6 56 +8  1020  -0.7  747  291           
15 20.04.17 040 (СВ) 20000 м    8/0 верхняя 
[Ci]
+8.9 +0.1 54 +7  1019.3  -0.6  747  291    +9.7       
18 20.04.17 100 (В) 10 км    ясно 
+4.6 -0.5 69 +3  1020.9  1.2  748  296           
21 20.04.17 080 (В) 10 км    ясно 
+3.3 -0.6 76 +1  1020.1  -0.9  747  297           
00 21.04.17 090 (В) 10 км    ясно 
+1.5 -1.2 82 -1  1018.3  -1.9  745  299           
03 21.04.17 090 (В) 20000 м    10/0 средняя 
[Ac As]
+1.8 -0.2 87 -1  1017.4  -0.9  745  298  +0.9        сухая 
06 21.04.17 100 (В) 6{10}  20000 м    10/10 600 м 
[Sc]
+6.1 +1.3 71 +4  1016.4  -0.6  744  293           
09 21.04.17 090 (В) 6{12}  20000 м    10/10 600 м 
[Sc]
+10.3 +3.7 64 +9  1015.5  -0.6  744  288           
12 21.04.17 100 (В) 7{11}  20000 м    10/8 600 м средняя 
[Sc|Ac und]
+13.1 +5 58 +12  1012.9  -2.2  742  285           
15 21.04.17 120 (ЮВ) 4{10}  20000 м  {ливн. осадки}  10/10 600 м 
[Sc diur, vesp]
+11.6 +4.9 63 +11  1011.7  -1.4  741  286    +13.7       
18 21.04.17 180 (Ю) 10 км    10/10 600 м 
[Sc]
+10 +5.2 72 +9  1012.3  0.5  742  287           
21 21.04.17 270 (З) 9-13{15}  10 км  слаб. ливневой дождь  10/10 300 м кучево-дожд. 
[Cb cap]
+5.2 +3.3 88 +2  1013.3  0.5  742  293           
00 22.04.17 290 (З) 4{16}  10 км  ливневой дождь  10/10 300 м кучево-дожд. 
[Cb cap]
+3.2 +1.3 87 +1  1013.5  742  295           
03 22.04.17 220 (ЮЗ) 10 км  {ливн. осадки}  9/8 300 м средняя 
[Sc diur, vesp|Ac cast]
+3 +1.6 91 +2  1011.9  -1.6  741  295  +2.9      влажная 
06 22.04.17 250 (З) 12-17{18}  20000 м  {ливн. осадки}  8/6 600 м кучево-дожд., средняя, верхняя 
[Cb cap|Ac trans|Ci fib]
+7.7 +1.2 63 +4  1011.2  -0.3  741  290           
09 22.04.17 240 (ЮЗ) 19-26{26}  20000 м  {ливн. осадки}  8/6 600 м кучево-дожд., средняя 
[Cb cap|Ac trans]
+8.5 -0.1 55 +4  1011.1  0.1  741  289           
12 22.04.17 260 (З) 14-21{27}  20000 м  {ливн. осадки}  8/6 600 м кучево-дожд., средняя 
[Cb cap|Ac trans]
+9.3 +0.5 54 +6  1012.5  1.5  742  289           
15 22.04.17 270 (З) 12-18{23}  20000 м  {ливн. осадки}  8/6 600 м кучево-дожд., средняя 
[Cb cap|Ac trans]
+6.6 +1.1 68 +3  1015.5  2.6  744  292    +9.4  0.3     
18 22.04.17 250 (З) 3{18}  10 км  {ливн. осадки}  ясно 
+4 +0.8 80 +3  1017.1  2.6  745  296           
21 22.04.17 250 (З) 10 км    5/0 средняя 
[Ac trans]
+3.2 +1.1 86 +1  1017.7  0.5  745  297           
00 23.04.17 230 (ЮЗ) 10 км    10/0 верхняя 
[Ci fib]
+4.2 +1.5 83 +3  1016.8  -0.7  745  295           
03 23.04.17 200 (Ю) 10 км    9/0 средняя 
[Ac trans]
+4.2 +1.8 84 +2  1016.4  -0.4  744  295  +2.8        влажная 
Время (UTC), дата Ветер
(°,м/с) 
Видим.   Явления Облачность Т
(°С)
Тd
(°С)
f(%) Тe
(°С)
Pmin
(гПа)
dP
(гПа)
Po
(мм)
O2
(г/м3)
Тmin Tmax R s Состояние
почвы

Для получения пояснительной информации подведите курсор к названию столбца.

ПОГОДА в Элисте - архив

Всё, что Вы хотите узнать о погоде в Элисте - удобно и подробно!

Выберите нужную дату (начиная с 1 января 2015* года) и нажмите кнопку "Найти".
Будут отображены архивные сводки погоды по пункту Элиста, начиная с указанной даты.


Отображать данные в формате CSV (для использования в таблицах Excel)


Внимание! Наш архив погоды предназначен исключительно для личного некоммерческого использования в познавательных целях. Если Вам необходимы официальные справки о состоянии погоды (для производственных, юридических, коммерческих и т.п. целей), обращайтесь в органы Росгидромета.

*Примечание: данная дата относится к архиву по метеостанциям СССР (Россия, СНГ, Балтия).
Архив по метеостанциям Зарубежной Европы и Азии (кроме Китая) хранится 10 дней, по другим регионам земного шара (Китай, Африка, Америка, Австралия, Океания) - 1 день.

Элиста - район местоположения метеостанции


Название, широта, долгота, высота метеостанции:
Элиста 46.4°ш. 44.3°д. 155 м над ур. моря [Российская Федерация]

Дополнительная информация

В oтличие oт бoльшинства пoгoдных сайтoв мы публикуем пoдрoбную метеoинфoрмацию в детальнoм прoфессиoнальнoм фoрмате.

Характеристики температуры и влажнoсти вoздуха измеряются на высoте 2 м в тени вдали oт зданий и деревьев.
Скoрoсть ветра измеряется на высoте 10 м (на урoвне рoста челoвека скoрoсть ветра ниже в 1.5-2 раза). Если метеoстанция нахoдится в гoрoде или в лесу, тo скoрoсть ветра занижена на 2-4 м/с пo сравнению с oткрытым местoм. Скoрoсть ветра над акватoриями крупных рек и oзёр, а также на вершинах хoлмoв на 2-5 м/с выше, чем в oбычных услoвиях.
Атмoсфернoе давление в разных тoчках местнoсти мoжет значительнo oтличаться oт давления на метеoстанции, в зависимoсти oт услoвий рельефа (при пoдъёме на 10 м давление пoнижается примернo на 1 мм рт.ст.).